TimeCDT,TemperatureF,Dew PointF,Humidity,Sea Level PressureIn,VisibilityMPH,Wind Direction,Wind SpeedMPH,Gust SpeedMPH,PrecipitationIn,Events,Conditions,WindDirDegrees,DateUTC
12:15 AM,37.4,33.8,87,30.24,10.0,SE,9.2,-,N/A,,Overcast,140,2013-03-29 05:15:00
12:35 AM,37.4,33.8,87,30.24,10.0,SE,10.4,-,N/A,,Overcast,130,2013-03-29 05:35:00
12:55 AM,37.4,33.8,87,30.24,10.0,SE,9.2,-,N/A,,Overcast,140,2013-03-29 05:55:00
1:15 AM,35.6,33.8,93,30.24,10.0,SE,11.5,-,N/A,,Overcast,140,2013-03-29 06:15:00
1:35 AM,35.6,33.8,93,30.24,10.0,SE,9.2,-,N/A,,Overcast,130,2013-03-29 06:35:00
1:55 AM,35.6,32.0,87,30.24,10.0,SE,11.5,-,N/A,,Overcast,130,2013-03-29 06:55:00
2:15 AM,35.6,32.0,87,30.24,10.0,SE,10.4,-,N/A,,Overcast,130,2013-03-29 07:15:00
2:35 AM,35.6,32.0,87,30.24,10.0,SE,9.2,-,N/A,,Overcast,130,2013-03-29 07:35:00
2:55 AM,35.6,32.0,87,30.23,10.0,SE,9.2,-,N/A,,Overcast,130,2013-03-29 07:55:00
3:15 AM,35.6,32.0,87,30.23,10.0,SE,9.2,-,N/A,,Overcast,130,2013-03-29 08:15:00
3:35 AM,35.6,32.0,87,30.23,10.0,SE,10.4,-,N/A,,Overcast,130,2013-03-29 08:35:00
3:55 AM,35.6,32.0,87,30.22,10.0,SE,9.2,-,N/A,,Overcast,130,2013-03-29 08:55:00
4:15 AM,35.6,32.0,87,30.22,10.0,ESE,9.2,-,N/A,,Mostly Cloudy,120,2013-03-29 09:15:00
4:35 AM,35.6,32.0,87,30.22,10.0,SE,10.4,-,N/A,,Partly Cloudy,140,2013-03-29 09:35:00
4:55 AM,35.6,32.0,87,30.22,10.0,SE,9.2,-,N/A,,Mostly Cloudy,130,2013-03-29 09:55:00
5:15 AM,35.6,32.0,87,30.21,10.0,SE,11.5,-,N/A,,Mostly Cloudy,140,2013-03-29 10:15:00
5:35 AM,35.6,32.0,87,30.21,10.0,SE,10.4,-,N/A,,Overcast,130,2013-03-29 10:35:00
5:55 AM,35.6,32.0,87,30.21,10.0,SE,9.2,-,N/A,,Scattered Clouds,140,2013-03-29 10:55:00
6:15 AM,35.6,32.0,87,30.22,10.0,SE,9.2,-,N/A,,Clear,130,2013-03-29 11:15:00
6:35 AM,35.6,32.0,87,30.22,10.0,SE,9.2,-,N/A,,Clear,130,2013-03-29 11:35:00
6:55 AM,33.8,32.0,93,30.22,9.0,SSE,10.4,-,N/A,,Partly Cloudy,150,2013-03-29 11:55:00
7:15 AM,35.6,32.0,87,30.22,8.0,ESE,9.2,-,N/A,,Scattered Clouds,120,2013-03-29 12:15:00
7:35 AM,35.6,32.0,87,30.24,8.0,SE,4.6,-,N/A,,Overcast,130,2013-03-29 12:35:00
7:55 AM,35.6,32.0,87,30.23,8.0,SE,9.2,-,N/A,,Scattered Clouds,140,2013-03-29 12:55:00
8:15 AM,35.6,32.0,87,30.24,8.0,SE,6.9,-,N/A,,Mostly Cloudy,130,2013-03-29 13:15:00
8:35 AM,37.4,33.8,87,30.25,8.0,SE,6.9,-,N/A,,Overcast,130,2013-03-29 13:35:00
8:55 AM,37.4,33.8,87,30.25,9.0,SE,5.8,-,N/A,,Overcast,140,2013-03-29 13:55:00
9:15 AM,39.2,33.8,81,30.25,9.0,SE,6.9,-,N/A,,Mostly Cloudy,140,2013-03-29 14:15:00
9:35 AM,39.2,35.6,87,30.25,9.0,SSE,8.1,-,N/A,,Partly Cloudy,150,2013-03-29 14:35:00
9:55 AM,41.0,35.6,81,30.24,9.0,SSE,10.4,-,N/A,,Clear,160,2013-03-29 14:55:00
10:15 AM,41.0,35.6,81,30.25,9.0,South,8.1,-,N/A,,Clear,170,2013-03-29 15:15:00
10:35 AM,42.8,37.4,81,30.24,9.0,South,10.4,-,N/A,,Partly Cloudy,170,2013-03-29 15:35:00
10:55 AM,44.6,39.2,81,30.24,9.0,South,10.4,-,N/A,,Clear,170,2013-03-29 15:55:00
11:15 AM,44.6,39.2,81,30.25,9.0,South,10.4,-,N/A,,Clear,170,2013-03-29 16:15:00
11:55 AM,46.4,41.0,81,30.24,10.0,South,16.1,-,N/A,,Clear,180,2013-03-29 16:55:00
12:15 PM,48.2,41.0,76,30.23,9.0,South,16.1,-,N/A,,Clear,180,2013-03-29 17:15:00
12:35 PM,48.2,41.0,76,30.23,10.0,South,16.1,-,N/A,,Clear,170,2013-03-29 17:35:00
12:55 PM,50.0,41.0,71,30.23,10.0,South,16.1,-,N/A,,Clear,170,2013-03-29 17:55:00
1:15 PM,50.0,42.8,76,30.22,9.0,South,15.0,-,N/A,,Clear,180,2013-03-29 18:15:00
1:35 PM,51.8,42.8,71,30.21,9.0,South,17.3,-,N/A,,Clear,170,2013-03-29 18:35:00
1:55 PM,51.8,42.8,71,30.20,10.0,South,18.4,-,N/A,,Clear,180,2013-03-29 18:55:00
2:15 PM,53.6,41.0,62,30.19,10.0,South,18.4,-,N/A,,Clear,170,2013-03-29 19:15:00
2:35 PM,53.6,41.0,62,30.18,10.0,South,19.6,-,N/A,,Clear,170,2013-03-29 19:35:00
2:55 PM,53.6,42.8,67,30.18,10.0,South,16.1,-,N/A,,Clear,170,2013-03-29 19:55:00
3:15 PM,53.6,42.8,67,30.17,10.0,South,16.1,-,N/A,,Clear,180,2013-03-29 20:15:00
3:35 PM,55.4,41.0,58,30.16,10.0,South,15.0,21.9,N/A,,Clear,180,2013-03-29 20:35:00
3:55 PM,55.4,41.0,58,30.16,10.0,SSE,13.8,19.6,N/A,,Clear,160,2013-03-29 20:55:00
4:15 PM,55.4,41.0,58,30.15,10.0,South,16.1,23.0,N/A,,Clear,180,2013-03-29 21:15:00
4:35 PM,55.4,41.0,58,30.14,10.0,SSE,15.0,20.7,N/A,,Clear,160,2013-03-29 21:35:00
4:55 PM,55.4,42.8,63,30.14,10.0,SSE,13.8,19.6,N/A,,Clear,160,2013-03-29 21:55:00
5:15 PM,55.4,42.8,63,30.13,10.0,South,16.1,-,N/A,,Clear,180,2013-03-29 22:15:00
5:35 PM,55.4,41.0,58,30.13,10.0,SSE,13.8,-,N/A,,Clear,160,2013-03-29 22:35:00
5:55 PM,55.4,41.0,58,30.13,10.0,SSE,12.7,-,N/A,,Clear,160,2013-03-29 22:55:00
6:15 PM,53.6,41.0,62,30.12,10.0,South,12.7,-,N/A,,Clear,170,2013-03-29 23:15:00
6:35 PM,53.6,41.0,62,30.12,10.0,SSE,11.5,-,N/A,,Clear,160,2013-03-29 23:35:00
6:55 PM,51.8,41.0,67,30.11,10.0,SSE,11.5,-,N/A,,Clear,150,2013-03-29 23:55:00
7:15 PM,50.0,41.0,71,30.11,10.0,SSE,10.4,-,N/A,,Clear,150,2013-03-30 00:15:00
7:35 PM,50.0,41.0,71,30.10,9.0,SSE,11.5,-,N/A,,Clear,150,2013-03-30 00:35:00
7:55 PM,48.2,42.8,82,30.09,10.0,SSE,12.7,-,N/A,,Clear,150,2013-03-30 00:55:00
8:15 PM,48.2,41.0,76,30.09,10.0,SSE,13.8,-,N/A,,Clear,150,2013-03-30 01:15:00
8:35 PM,48.2,41.0,76,30.08,10.0,SSE,13.8,-,N/A,,Clear,150,2013-03-30 01:35:00
8:55 PM,48.2,39.2,71,30.08,10.0,SSE,15.0,-,N/A,,Clear,150,2013-03-30 01:55:00
9:15 PM,48.2,39.2,71,30.08,10.0,SSE,17.3,-,N/A,,Clear,150,2013-03-30 02:15:00
9:35 PM,48.2,39.2,71,30.08,10.0,SSE,18.4,-,N/A,,Clear,150,2013-03-30 02:35:00
9:55 PM,46.4,39.2,76,30.07,10.0,SSE,18.4,-,N/A,,Clear,160,2013-03-30 02:55:00
10:15 PM,46.4,39.2,76,30.07,10.0,SSE,18.4,25.3,N/A,,Clear,150,2013-03-30 03:15:00
10:35 PM,46.4,37.4,71,30.07,10.0,SSE,18.4,25.3,N/A,,Clear,160,2013-03-30 03:35:00
10:55 PM,46.4,37.4,71,30.07,10.0,SSE,18.4,-,N/A,,Clear,160,2013-03-30 03:55:00
11:15 PM,44.6,37.4,76,30.06,10.0,SSE,18.4,-,N/A,,Partly Cloudy,150,2013-03-30 04:15:00
11:35 PM,44.6,37.4,76,30.06,10.0,SSE,17.3,-,N/A,,Clear,160,2013-03-30 04:35:00
11:55 PM,44.6,37.4,76,30.05,10.0,SSE,17.3,-,N/A,,Clear,160,2013-03-30 04:55:00